Temperature
14 14 14 14 14 14 14 14 14 15 14 14 14 14 14 15 15 15 15 15 15 15 15 15 15 15 15 15 16 15 15 15 15 15 15 15 15 15
14 14 14 14 14 14 14 14 14 15 14 14 14 14 14 14 14 15 15 15 15 15 15 15 15 15 15 15 15 15 15 15 15 15 15 15 15 15
13 13 14 14 14 14 14 14 14 14 14 13 13 13 14 14 14 14 14 14 14 14 14 14 14 14 14 14 14 14 14 14 14 14 14 15 15 15
13 13 13 13 13 13 14 14 14 14 14 13 13 13 13 13 13 13 13 13 14 14 13 13 13 13 13 13 13 13 13 13 13 14 14 14 14 15
13 13 13 13 13 13 13 14 13 13 13 13 12 13 13 13 13 13 13 13 13 13 13 12 12 12 12 12 12 12 12 12 13 13 13 14 14 14
12 12 12 13 13 13 13 13 13 13 13 13 13 13 12 12 13 13 13 12 12 12 12 12 12 12 12 12 12 12 12 12 12 12 13 13 14 14
12 12 12 12 12 13 13 13 13 13 13 13 13 12 12 12 12 12 12 12 12 12 12 12 12 12 11 11 11 11 11 12 12 12 13 13 13 14
11 12 12 12 12 12 12 12 12 12 12 12 12 12 11 11 11 11 11 11 11 11 11 11 11 11 11 11 11 11 11 11 11 12 12 12 13 13
11 11 11 11 12 12 12 12 12 12 12 11 11 11 11 11 11 11 11 11 10 10 11 11 11 11 11 11 11 11 11 11 11 11 12 12 12 13
11 11 11 11 11 11 11 11 11 11 11 11 11 11 10 10 10 10 10 10 10 10 10 10 11 11 11 10 10 10 10 10 10 11 11 11 12 12
11 11 11 11 11 11 11 11 11 11 11 11 11 10 10 10 10 10 10 10 10 10 10 9 10 10 10 10 10 10 10 10 10 10 10 11 11 11
11 11 11 11 11 11 11 11 11 11 11 10 10 10 10 10 10 9 9 9 9 9 9 9 9 9 10 9 9 9 10 10 10 10 10 10 10 10
11 10 10 10 10 10 10 10 10 10 10 10 10 10 9 9 9 9 9 9 9 9 9 9 9 9 9 9 9 9 9 9 9 9 9 9 9 9
10 10 10 10 10 10 10 10 10 10 10 9 9 9 9 9 9 9 9 9 8 8 8 8 8 8 8 8 8 8 9 9 9 9 9 9 9 9
10 10 10 10 9 9 9 9 9 9 9 9 9 8 8 8 8 8 8 8 8 8 8 8 8 8 8 8 8 8 8 8 8 8 9 9 9 9
10 10 10 9 9 9 9 9 9 9 8 8 8 8 8 8 8 8 8 8 8 8 8 8 8 8 8 8 7 7 7 7 8 8 8 8 8 8
10 10 10 9 9 9 9 9 9 9 8 8 8 8 8 8 8 8 7 7 7 7 7 7 7 7 7 7 7 7 7 7 7 7 8 8 8 8
10 10 10 10 9 9 9 9 9 9 8 8 8 8 7 7 7 7 7 7 7 7 7 7 7 7 7 7 7 7 7 7 7 7 7 7 7 7
10 10 10 10 10 10 9 9 9 9 8 8 8 7 7 7 7 7 7 7 7 7 6 6 6 7 7 6 6 6 6 6 6 6 6 6 6 6
10 10 10 10 10 10 10 9 9 9 8 8 8 7 7 7 7 7 7 7 6 6 6 6 6 6 6 6 6 6 6 6 6 6 6 6 6 6
10 10 10 10 10 10 10 10 9 9 9 8 8 8 7 7 7 7 6 6 6 6 6 6 6 6 6 6 6 6 6 6 6 6 6 6 5 5
10 10 10 10 10 10 10 10 10 9 9 9 8 8 7 7 7 6 6 6 6 6 5 5 5 5 5 5 5 5 5 5 5 5 5 5 5 5
11 11 10 10 10 10 10 10 10 9 9 9 9 8 8 7 7 6 6 6 6 5 5 5 5 5 5 5 5 5 5 5 5 5 5 5 5 4
Wind_Speed
4 4 3 2 1 1 2 2 3 2 2 3 3 3 2 3 4 4 3 2 1 1 1 1 1 1 1 2 3 4 6 8 9 11 13 15 17 20
3 3 2 1 1 0 1 1 2 3 3 2 3 3 4 4 7 6 4 5 4 2 0 0 0 0 1 2 4 6 7 9 11 13 15 17 19 20
3 4 4 3 2 1 2 2 2 4 5 3 4 4 6 6 5 6 7 6 6 6 3 1 1 2 3 4 6 7 9 10 12 14 16 18 20 22
5 6 5 5 4 3 3 4 4 4 6 5 5 6 7 5 5 6 5 6 6 8 6 3 2 3 4 6 7 8 10 11 13 15 17 19 21 24
7 7 6 6 6 5 6 6 6 7 7 6 5 5 5 4 5 5 5 5 5 6 6 6 5 5 5 6 7 9 10 12 14 16 18 20 22 24
8 7 6 7 7 7 7 8 9 10 8 7 5 5 4 3 4 5 5 4 4 5 5 5 6 6 6 6 7 9 11 13 15 16 18 20 21 22
9 8 8 10 10 8 8 9 10 8 7 7 5 5 5 5 4 4 4 4 3 3 4 3 3 4 4 6 8 11 12 13 15 17 18 19 20 20
9 8 9 10 12 14 15 13 11 9 7 6 4 5 4 4 4 4 4 5 4 5 4 4 3 3 4 4 8 12 13 14 15 17 18 18 18 18
8 7 8 8 9 9 12 14 13 12 9 6 5 3 2 2 4 6 5 3 2 5 4 4 4 4 4 5 9 11 13 14 15 16 16 17 16 15
8 8 8 8 7 9 9 9 9 8 7 5 3 2 1 1 1 1 1 2 3 3 4 3 5 4 4 4 9 11 12 13 13 14 15 15 14 13
7 7 9 9 11 13 11 9 9 7 8 11 10 8 8 7 4 5 5 5 4 4 3 3 4 4 4 4 6 11 12 12 12 12 13 13 13 10
6 7 10 11 12 13 10 9 9 6 7 9 9 10 8 8 9 5 3 3 2 3 4 4 4 5 5 4 4 6 8 9 11 11 11 12 12 7
6 4 5 12 13 13 10 7 7 6 7 8 7 7 6 7 7 5 3 3 3 2 4 3 3 4 3 4 5 5 6 5 6 6 8 10 11 8
6 5 5 11 12 11 9 10 12 10 7 7 6 6 5 5 5 6 6 5 4 2 4 3 3 3 4 4 5 5 5 7 7 7 5 6 7 8
6 9 9 11 10 8 9 11 9 7 6 6 5 4 3 3 4 5 7 6 6 8 10 7 4 3 3 3 4 5 5 5 7 7 8 6 5 4
6 7 8 9 7 6 6 6 5 5 5 4 3 3 4 5 5 4 5 5 6 6 9 12 8 5 4 4 4 5 5 6 7 7 7 7 7 5
7 4 3 3 3 3 3 4 4 4 5 3 4 4 5 4 4 4 4 4 5 4 6 7 7 5 3 3 4 5 5 5 6 7 6 7 7 8
8 5 4 4 4 4 4 3 2 4 3 4 4 4 4 3 3 4 4 4 4 4 4 5 6 7 6 4 4 4 5 5 5 7 6 6 7 7
5 5 4 4 4 5 5 5 4 4 4 4 4 3 3 3 3 3 4 4 4 4 4 4 5 5 5 6 7 5 4 5 6 6 6 5 5 5
4 5 5 5 5 6 6 5 5 5 4 4 4 3 3 3 3 3 3 3 3 4 5 5 5 3 1 2 3 5 7 4 4 5 5 4 3 3
5 5 5 5 5 7 8 7 7 6 5 5 4 4 4 4 3 3 3 4 4 3 4 4 5 6 1 3 4 6 6 7 5 2 4 4 4 5
7 6 6 6 7 7 8 8 7 6 6 5 5 5 4 4 4 4 3 3 3 2 2 3 6 6 5 5 4 5 6 7 8 9 5 2 1 3
7 7 7 7 7 7 8 9 9 7 7 6 6 6 5 4 4 4 4 4 3 2 3 4 5 5 4 3 3 4 6 6 6 6 6 9 7 5
Wind_Direction
188 186 187 191 190 214 210 184 166 130 60 15 33 18 37 65 57 68 55 38 41 48 85 117 137 158 182 218 240 254 261 263 263 263 262 261 258 255
178 166 147 130 120 231 193 169 152 138 109 37 30 19 30 52 50 52 40 39 34 25 20 65 47 354 280 279 280 279 279 275 271 268 265 262 260 258
140 135 123 112 98 90 100 93 86 108 111 63 30 25 41 41 29 35 41 43 34 37 43 31 355 323 307 299 296 293 288 284 280 276 272 267 263 259
116 110 105 103 88 82 91 92 89 96 111 97 41 29 35 32 34 37 33 45 44 44 46 35 358 328 310 300 296 295 293 289 287 285 280 274 268 262
101 101 98 96 82 74 77 81 83 85 84 91 60 32 30 23 26 27 34 27 31 37 40 31 10 347 326 309 305 303 301 298 295 291 286 280 273 265
83 85 85 88 90 85 83 85 91 87 81 79 63 36 24 359 26 18 12 9 15 15 16 15 12 6 352 340 329 321 316 310 304 300 294 288 278 268
76 72 73 79 80 83 92 93 94 92 84 78 66 49 29 20 5 348 8 356 1 359 347 349 349 348 346 348 344 335 328 321 315 311 305 298 288 275
84 71 67 62 71 74 77 80 91 100 98 87 72 64 35 14 1 14 22 29 2 339 352 332 340 328 317 322 337 340 336 331 326 322 317 310 301 288
83 75 74 64 69 75 70 66 65 72 90 108 93 79 56 13 26 27 27 49 12 322 359 335 326 315 304 309 329 339 339 336 333 329 326 323 318 306
89 90 86 68 76 89 79 65 53 46 55 73 102 100 93 114 103 77 347 15 337 335 27 357 320 312 309 314 329 336 339 340 338 336 335 336 334 326
80 82 89 80 84 90 84 73 54 29 39 58 68 69 63 68 79 55 37 43 6 323 355 10 320 316 316 318 329 340 338 340 342 341 344 349 351 353
80 72 82 93 89 88 88 84 69 41 47 53 46 36 37 40 50 66 87 77 38 339 327 357 333 343 335 317 325 338 341 338 342 344 346 352 358 4
114 99 89 96 92 90 90 87 96 96 73 68 55 38 31 30 26 27 45 101 90 8 315 355 349 348 339 315 325 335 347 344 342 344 349 355 2 11
140 140 126 109 99 94 87 91 90 84 74 65 55 38 30 20 8 16 27 46 79 70 349 21 26 352 355 352 331 327 338 353 356 353 351 357 8 27
153 156 141 117 97 84 86 89 85 83 78 71 59 37 11 6 18 23 22 25 32 33 26 25 28 16 39 13 339 336 335 343 355 359 2 6 5 10
131 141 124 104 90 82 76 75 81 97 101 94 79 40 29 35 32 28 30 24 32 7 3 15 22 37 30 13 17 2 354 347 347 350 358 10 15 21
132 105 96 93 88 79 75 79 82 86 86 80 71 54 41 40 25 19 37 44 46 15 354 351 359 22 60 51 27 4 357 355 351 350 357 12 21 30
134 135 145 148 151 150 145 131 114 113 115 104 85 74 64 57 36 22 37 49 42 16 357 346 360 12 12 7 31 13 359 350 344 355 4 12 19 26
135 153 164 173 175 169 166 162 159 153 142 124 106 92 82 73 61 40 30 38 34 22 1 357 17 37 30 355 329 6 10 347 354 2 6 13 15 16
157 167 179 182 177 172 171 168 160 150 142 139 126 111 100 91 73 55 48 54 50 34 20 12 10 8 355 279 298 325 3 10 360 357 352 359 14 25
181 182 182 177 175 173 173 172 165 161 160 154 147 140 130 114 95 78 74 67 72 57 38 360 318 329 318 36 18 348 337 357 19 357 348 6 5 6
183 188 188 181 178 175 173 171 167 165 163 161 162 160 151 135 125 117 108 94 84 84 45 347 350 13 33 38 11 337 337 344 358 13 28 38 55 13
183 187 187 184 183 179 175 175 174 176 175 171 170 172 165 152 146 144 138 123 117 94 51 14 6 14 16 22 8 348 348 350 352 360 354 7 36 52
Height
1447 1448 1449 1450 1450 1451 1452 1454 1456 1457 1459 1461 1462 1463 1464 1464 1465 1465 1465 1465 1465 1466 1467 1468 1469 1470 1471 1472 1473 1474 1475 1477 1478 1478 1480 1481 1482 1484
1445 1446 1448 1449 1450 1451 1452 1453 1455 1457 1459 1461 1462 1463 1463 1463 1463 1463 1463 1463 1463 1463 1464 1465 1465 1466 1467 1468 1468 1469 1470 1470 1471 1471 1472 1472 1473 1474
1444 1445 1447 1448 1449 1450 1452 1453 1455 1457 1459 1461 1462 1462 1462 1462 1462 1462 1462 1461 1461 1461 1461 1462 1462 1462 1463 1463 1464 1464 1464 1464 1464 1464 1464 1464 1464 1465
1442 1444 1446 1448 1449 1451 1452 1454 1455 1457 1458 1460 1462 1462 1462 1462 1462 1461 1461 1461 1460 1460 1460 1460 1460 1459 1459 1460 1460 1460 1459 1459 1458 1457 1457 1456 1455 1455
1442 1444 1446 1448 1450 1451 1453 1454 1456 1457 1459 1460 1462 1463 1463 1463 1463 1462 1462 1461 1461 1460 1459 1459 1458 1457 1456 1456 1456 1455 1454 1453 1452 1451 1449 1447 1446 1445
1443 1446 1448 1450 1451 1453 1454 1456 1457 1459 1461 1462 1463 1464 1464 1464 1464 1463 1463 1462 1461 1460 1459 1458 1457 1456 1454 1453 1452 1451 1449 1447 1446 1443 1441 1439 1436 1434
1445 1448 1450 1452 1454 1455 1457 1458 1460 1462 1463 1464 1465 1465 1465 1465 1465 1464 1464 1463 1462 1461 1460 1458 1456 1455 1453 1451 1449 1447 1444 1442 1440 1437 1434 1431 1427 1425
1449 1452 1454 1455 1457 1458 1460 1462 1463 1464 1465 1466 1466 1466 1467 1467 1467 1465 1464 1463 1462 1462 1460 1458 1456 1454 1451 1449 1446 1444 1441 1438 1435 1432 1428 1424 1420 1416
1454 1456 1457 1459 1460 1462 1463 1464 1465 1466 1467 1468 1468 1469 1469 1469 1468 1467 1465 1464 1463 1462 1460 1458 1455 1453 1451 1448 1445 1442 1438 1435 1431 1427 1423 1419 1414 1409
1457 1459 1460 1462 1464 1465 1465 1466 1467 1468 1469 1469 1469 1470 1470 1470 1469 1468 1467 1466 1464 1463 1460 1458 1455 1452 1450 1447 1444 1440 1437 1433 1429 1425 1420 1415 1410 1405
1460 1462 1463 1464 1466 1467 1467 1468 1469 1470 1471 1471 1471 1471 1471 1471 1470 1469 1467 1465 1464 1463 1461 1458 1455 1452 1450 1447 1444 1440 1436 1432 1428 1423 1419 1414 1409 1403
1462 1463 1464 1465 1467 1468 1468 1469 1470 1471 1472 1472 1472 1472 1472 1471 1470 1469 1467 1466 1464 1463 1462 1460 1457 1453 1450 1448 1444 1440 1436 1432 1428 1423 1419 1415 1411 1406
1463 1464 1465 1466 1468 1469 1470 1471 1472 1472 1473 1473 1473 1473 1472 1472 1471 1469 1468 1466 1465 1464 1463 1461 1458 1455 1452 1449 1445 1441 1437 1433 1429 1425 1421 1417 1414 1410
1464 1465 1466 1467 1469 1470 1471 1472 1473 1473 1474 1474 1473 1473 1473 1472 1472 1471 1470 1468 1467 1466 1464 1462 1459 1456 1453 1450 1447 1443 1439 1435 1431 1427 1423 1420 1417 1415
1464 1465 1467 1468 1470 1472 1473 1474 1474 1474 1474 1474 1474 1474 1474 1474 1473 1472 1471 1470 1468 1467 1465 1463 1460 1458 1455 1452 1449 1445 1441 1438 1435 1430 1426 1423 1420 1418
1463 1465 1467 1469 1471 1473 1474 1474 1475 1475 1474 1474 1475 1475 1475 1475 1474 1473 1472 1470 1469 1468 1466 1464 1461 1459 1456 1454 1452 1448 1445 1442 1438 1434 1430 1427 1424 1421
1461 1464 1466 1469 1471 1473 1474 1475 1475 1475 1475 1475 1476 1476 1476 1475 1475 1474 1473 1471 1470 1469 1467 1465 1463 1460 1458 1456 1453 1451 1448 1445 1441 1438 1434 1431 1428 1425
1460 1463 1465 1468 1470 1472 1474 1475 1476 1476 1476 1476 1477 1477 1477 1476 1476 1475 1474 1473 1471 1470 1468 1467 1465 1462 1460 1458 1456 1453 1451 1447 1444 1441 1438 1435 1432 1430
1459 1461 1464 1467 1469 1471 1473 1474 1475 1476 1477 1477 1477 1477 1477 1477 1476 1476 1475 1474 1472 1471 1470 1468 1466 1463 1461 1459 1458 1456 1453 1450 1447 1443 1440 1438 1436 1434
1457 1460 1462 1465 1467 1469 1471 1473 1474 1476 1476 1477 1477 1477 1477 1477 1477 1476 1475 1474 1473 1472 1470 1469 1467 1465 1463 1462 1459 1458 1455 1452 1449 1446 1444 1441 1440 1438
1454 1457 1460 1463 1465 1467 1469 1471 1473 1474 1475 1476 1477 1477 1477 1477 1476 1476 1475 1474 1473 1472 1470 1469 1468 1466 1464 1462 1460 1459 1457 1454 1452 1449 1446 1444 1442 1440
1450 1454 1457 1460 1463 1465 1467 1469 1471 1473 1474 1475 1475 1476 1476 1476 1475 1475 1474 1473 1472 1471 1470 1469 1467 1466 1464 1462 1461 1459 1457 1455 1453 1451 1449 1446 1444 1442
1446 1450 1454 1457 1460 1463 1465 1467 1469 1470 1472 1473 1474 1474 1474 1474 1474 1473 1473 1472 1471 1470 1469 1468 1467 1465 1464 1462 1461 1459 1457 1456 1454 1452 1450 1448 1446 1445